Year,Month,Day,Hour,Minute,Value (Times are PST for windspeed in km/hr)
2008,02,07,00,00,10.00
2008,02,07,00,01,5.70
2008,02,07,00,02,7.10
2008,02,07,00,03,6.10
2008,02,07,00,04,4.40
2008,02,07,00,05,11.30
2008,02,07,00,06,9.10
2008,02,07,00,07,6.40
2008,02,07,00,08,7.50
2008,02,07,00,09,8.80
2008,02,07,00,10,7.00
2008,02,07,00,11,7.40
2008,02,07,00,12,7.50
2008,02,07,00,13,5.80
2008,02,07,00,14,7.80
2008,02,07,00,15,5.50
2008,02,07,00,16,8.80
2008,02,07,00,17,7.90
2008,02,07,00,18,6.40
2008,02,07,00,19,4.10
2008,02,07,00,20,5.20
2008,02,07,00,21,5.40
2008,02,07,00,22,6.80
2008,02,07,00,23,6.90
2008,02,07,00,24,5.80
2008,02,07,00,25,5.60
2008,02,07,00,26,6.00
2008,02,07,00,27,6.80
2008,02,07,00,28,9.30
2008,02,07,00,29,10.40
2008,02,07,00,30,5.90
2008,02,07,00,31,5.40
2008,02,07,00,32,4.80
2008,02,07,00,33,7.00
2008,02,07,00,34,6.70
2008,02,07,00,35,7.00
2008,02,07,00,36,6.40
2008,02,07,00,37,5.80
2008,02,07,00,38,5.90
2008,02,07,00,39,4.10
2008,02,07,00,40,2.50
2008,02,07,00,41,1.90
2008,02,07,00,42,3.80
2008,02,07,00,43,2.30
2008,02,07,00,44,3.20
2008,02,07,00,45,2.60
2008,02,07,00,46,2.60
2008,02,07,00,47,0.30
2008,02,07,00,48,0.10
2008,02,07,00,49,3.70
2008,02,07,00,50,4.10
2008,02,07,00,51,5.00
2008,02,07,00,52,5.30
2008,02,07,00,53,4.10
2008,02,07,00,54,3.60
2008,02,07,00,55,2.70
2008,02,07,00,56,2.00
2008,02,07,00,57,1.90
2008,02,07,00,58,2.30
2008,02,07,00,59,2.70
2008,02,07,01,00,3.40
2008,02,07,01,01,5.10
2008,02,07,01,02,5.20
2008,02,07,01,03,4.50
2008,02,07,01,04,5.00
2008,02,07,01,05,6.40
2008,02,07,01,06,7.00
2008,02,07,01,07,4.50
2008,02,07,01,08,6.70
2008,02,07,01,09,5.80
2008,02,07,01,10,5.60
2008,02,07,01,11,0.80
2008,02,07,01,12,2.20
2008,02,07,01,13,1.50
2008,02,07,01,14,0.20
2008,02,07,01,15,2.50
2008,02,07,01,16,3.40
2008,02,07,01,17,3.20
2008,02,07,01,18,2.50
2008,02,07,01,19,0.90
2008,02,07,01,20,0.20
2008,02,07,01,21,0.20
2008,02,07,01,22,1.20
2008,02,07,01,23,0.20
2008,02,07,01,24,3.20
2008,02,07,01,25,3.10
2008,02,07,01,26,6.80
2008,02,07,01,27,5.90
2008,02,07,01,28,3.40
2008,02,07,01,29,3.30
2008,02,07,01,30,4.50
2008,02,07,01,31,3.50
2008,02,07,01,32,3.90
2008,02,07,01,33,1.40
2008,02,07,01,34,0.10
2008,02,07,01,35,2.80
2008,02,07,01,36,3.90
2008,02,07,01,37,2.40
2008,02,07,01,38,0.50
2008,02,07,01,39,0.20
2008,02,07,01,40,0.00
2008,02,07,01,41,0.00
2008,02,07,01,42,0.00
2008,02,07,01,43,0.00
2008,02,07,01,44,1.60
2008,02,07,01,45,4.40
2008,02,07,01,46,3.70
2008,02,07,01,47,3.40
2008,02,07,01,48,0.50
2008,02,07,01,49,1.40
2008,02,07,01,50,5.40
2008,02,07,01,51,4.20
2008,02,07,01,52,0.80
2008,02,07,01,53,1.80
2008,02,07,01,54,2.90
2008,02,07,01,55,2.00
2008,02,07,01,56,0.20
2008,02,07,01,57,0.30
2008,02,07,01,58,0.80
2008,02,07,01,59,2.20
2008,02,07,02,00,1.50
2008,02,07,02,01,1.50
2008,02,07,02,02,0.00
2008,02,07,02,03,0.00
2008,02,07,02,04,0.00
2008,02,07,02,05,0.00
2008,02,07,02,06,0.00
2008,02,07,02,07,0.00
2008,02,07,02,08,0.00
2008,02,07,02,09,0.00
2008,02,07,02,10,0.00
2008,02,07,02,11,0.60
2008,02,07,02,12,0.00
2008,02,07,02,13,3.60
2008,02,07,02,14,3.00
2008,02,07,02,15,1.70
2008,02,07,02,16,1.40
2008,02,07,02,17,1.90
2008,02,07,02,18,2.30
2008,02,07,02,19,0.30
2008,02,07,02,20,0.00
2008,02,07,02,21,1.20
2008,02,07,02,22,1.30
2008,02,07,02,23,1.00
2008,02,07,02,24,0.50
2008,02,07,02,25,0.80
2008,02,07,02,26,2.50
2008,02,07,02,27,0.60
2008,02,07,02,28,2.10
2008,02,07,02,29,4.30
2008,02,07,02,30,3.70
2008,02,07,02,31,4.80
2008,02,07,02,32,4.50
2008,02,07,02,33,3.10
2008,02,07,02,34,3.10
2008,02,07,02,35,3.80
2008,02,07,02,36,2.50
2008,02,07,02,37,2.70
2008,02,07,02,38,2.10
2008,02,07,02,39,1.80
2008,02,07,02,40,2.50
2008,02,07,02,41,3.80
2008,02,07,02,42,3.60
2008,02,07,02,43,3.60
2008,02,07,02,44,2.40
2008,02,07,02,45,1.60
2008,02,07,02,46,4.90
2008,02,07,02,47,3.90
2008,02,07,02,48,2.20
2008,02,07,02,49,1.40
2008,02,07,02,50,4.30
2008,02,07,02,51,2.00
2008,02,07,02,52,0.40
2008,02,07,02,53,2.10
2008,02,07,02,54,3.40
2008,02,07,02,55,1.10
2008,02,07,02,56,0.00
2008,02,07,02,57,0.00
2008,02,07,02,58,0.00
2008,02,07,02,59,2.30
2008,02,07,03,00,2.70
2008,02,07,03,01,2.90
2008,02,07,03,02,0.00
2008,02,07,03,03,0.00
2008,02,07,03,04,0.00
2008,02,07,03,05,0.90
2008,02,07,03,06,3.00
2008,02,07,03,07,3.60
2008,02,07,03,08,0.40
2008,02,07,03,09,0.00
2008,02,07,03,10,0.00
2008,02,07,03,11,0.10
2008,02,07,03,12,0.80
2008,02,07,03,13,1.40
2008,02,07,03,14,0.00
2008,02,07,03,15,0.30
2008,02,07,03,16,2.80
2008,02,07,03,17,2.70
2008,02,07,03,18,1.80
2008,02,07,03,19,4.10
2008,02,07,03,20,2.20
2008,02,07,03,21,0.50
2008,02,07,03,22,3.20
2008,02,07,03,23,3.10
2008,02,07,03,24,3.40
2008,02,07,03,25,3.50
2008,02,07,03,26,1.50
2008,02,07,03,27,3.60
2008,02,07,03,28,4.70
2008,02,07,03,29,4.20
2008,02,07,03,30,4.10
2008,02,07,03,31,3.30
2008,02,07,03,32,1.90
2008,02,07,03,33,0.90
2008,02,07,03,34,0.10
2008,02,07,03,35,1.80
2008,02,07,03,36,2.60
2008,02,07,03,37,2.40
2008,02,07,03,38,2.00
2008,02,07,03,39,3.10
2008,02,07,03,40,2.40
2008,02,07,03,41,2.60
2008,02,07,03,42,2.40
2008,02,07,03,43,1.40
2008,02,07,03,44,2.20
2008,02,07,03,45,2.20
2008,02,07,03,46,1.30
2008,02,07,03,47,0.90
2008,02,07,03,48,0.90
2008,02,07,03,49,2.40
2008,02,07,03,50,2.10
2008,02,07,03,51,1.00
2008,02,07,03,52,0.20
2008,02,07,03,53,2.20
2008,02,07,03,54,2.80
2008,02,07,03,55,1.10
2008,02,07,03,56,3.20
2008,02,07,03,57,3.60
2008,02,07,03,58,4.50
2008,02,07,03,59,4.40
2008,02,07,04,00,3.10
2008,02,07,04,01,3.20
2008,02,07,04,02,1.30
2008,02,07,04,03,0.00
2008,02,07,04,04,2.60
2008,02,07,04,05,3.00
2008,02,07,04,06,1.00
2008,02,07,04,07,0.10
2008,02,07,04,08,0.50
2008,02,07,04,09,0.80
2008,02,07,04,10,0.00
2008,02,07,04,11,0.00
2008,02,07,04,12,0.00
2008,02,07,04,13,0.40
2008,02,07,04,14,1.10
2008,02,07,04,15,1.00
2008,02,07,04,16,0.40
2008,02,07,04,17,4.60
2008,02,07,04,18,4.70
2008,02,07,04,19,2.80
2008,02,07,04,20,4.70
2008,02,07,04,21,5.50
2008,02,07,04,22,6.80
2008,02,07,04,23,3.60
2008,02,07,04,24,3.60
2008,02,07,04,25,3.50
2008,02,07,04,26,2.30
2008,02,07,04,27,0.00
2008,02,07,04,28,0.10
2008,02,07,04,29,0.00
2008,02,07,04,30,0.20
2008,02,07,04,31,1.60
2008,02,07,04,32,1.70
2008,02,07,04,33,1.20
2008,02,07,04,34,1.30
2008,02,07,04,35,2.50
2008,02,07,04,36,0.90
2008,02,07,04,37,2.00
2008,02,07,04,38,0.00
2008,02,07,04,39,0.00
2008,02,07,04,40,1.40
2008,02,07,04,41,0.30
2008,02,07,04,42,0.00
2008,02,07,04,43,0.40
2008,02,07,04,44,2.60
2008,02,07,04,45,6.40
2008,02,07,04,46,5.60
2008,02,07,04,47,6.20
2008,02,07,04,48,4.90
2008,02,07,04,49,3.30
2008,02,07,04,50,3.60
2008,02,07,04,51,0.80
2008,02,07,04,52,1.30
2008,02,07,04,53,5.80
2008,02,07,04,54,6.40
2008,02,07,04,55,9.20
2008,02,07,04,56,7.10
2008,02,07,04,57,4.80
2008,02,07,04,58,6.30
2008,02,07,04,59,6.50
2008,02,07,05,00,8.40
2008,02,07,05,01,4.10
2008,02,07,05,02,2.30
2008,02,07,05,03,3.20
2008,02,07,05,04,4.40
2008,02,07,05,05,1.90
2008,02,07,05,06,0.00
2008,02,07,05,07,1.60
2008,02,07,05,08,2.80
2008,02,07,05,09,3.20
2008,02,07,05,10,3.50
2008,02,07,05,11,4.70
2008,02,07,05,12,2.50
2008,02,07,05,13,2.70
2008,02,07,05,14,4.80
2008,02,07,05,15,3.50
2008,02,07,05,16,1.10
2008,02,07,05,17,0.30
2008,02,07,05,18,4.50
2008,02,07,05,19,2.80
2008,02,07,05,20,2.60
2008,02,07,05,21,4.20
2008,02,07,05,22,4.20
2008,02,07,05,23,1.80
2008,02,07,05,24,0.50
2008,02,07,05,25,2.40
2008,02,07,05,26,3.30
2008,02,07,05,27,2.60
2008,02,07,05,28,2.40
2008,02,07,05,29,2.70
2008,02,07,05,30,4.60
2008,02,07,05,31,4.50
2008,02,07,05,32,0.90
2008,02,07,05,33,3.00
2008,02,07,05,34,3.60
2008,02,07,05,35,5.00
2008,02,07,05,36,3.00
2008,02,07,05,37,3.40
2008,02,07,05,38,4.30
2008,02,07,05,39,3.70
2008,02,07,05,40,4.40
2008,02,07,05,41,3.90
2008,02,07,05,42,5.00
2008,02,07,05,43,5.00
2008,02,07,05,44,4.70
2008,02,07,05,45,3.70
2008,02,07,05,46,3.90
2008,02,07,05,47,3.80
2008,02,07,05,48,5.80
2008,02,07,05,49,5.40
2008,02,07,05,50,6.10
2008,02,07,05,51,5.90
2008,02,07,05,52,6.20
2008,02,07,05,53,5.30
2008,02,07,05,54,7.00
2008,02,07,05,55,6.90
2008,02,07,05,56,6.70
2008,02,07,05,57,6.30
2008,02,07,05,58,5.10
2008,02,07,05,59,4.70
2008,02,07,06,00,4.10
2008,02,07,06,01,4.10
2008,02,07,06,02,4.70
2008,02,07,06,03,5.10
2008,02,07,06,04,5.00
2008,02,07,06,05,7.30
2008,02,07,06,06,6.90
2008,02,07,06,07,6.30
2008,02,07,06,08,7.40
2008,02,07,06,09,6.80
2008,02,07,06,10,7.90
2008,02,07,06,11,6.60
2008,02,07,06,12,6.70
2008,02,07,06,13,5.90
2008,02,07,06,14,7.70
2008,02,07,06,15,7.40
2008,02,07,06,16,9.20
2008,02,07,06,17,7.70
2008,02,07,06,18,7.80
2008,02,07,06,19,6.10
2008,02,07,06,20,6.20
2008,02,07,06,21,7.10
2008,02,07,06,22,7.60
2008,02,07,06,23,9.00
2008,02,07,06,24,8.40
2008,02,07,06,25,9.30
2008,02,07,06,26,7.70
2008,02,07,06,27,8.30
2008,02,07,06,28,9.70
2008,02,07,06,29,8.90
2008,02,07,06,30,7.00
2008,02,07,06,31,6.60
2008,02,07,06,32,11.80
2008,02,07,06,33,9.20
2008,02,07,06,34,6.70
2008,02,07,06,35,7.50
2008,02,07,06,36,5.30
2008,02,07,06,37,5.30
2008,02,07,06,38,4.80
2008,02,07,06,39,4.60
2008,02,07,06,40,6.20
2008,02,07,06,41,7.70
2008,02,07,06,42,7.50
2008,02,07,06,43,6.50
2008,02,07,06,44,6.90
2008,02,07,06,45,5.70
2008,02,07,06,46,6.80
2008,02,07,06,47,6.40
2008,02,07,06,48,3.80
2008,02,07,06,49,4.20
2008,02,07,06,50,6.60
2008,02,07,06,51,6.10
2008,02,07,06,52,6.80
2008,02,07,06,53,3.20
2008,02,07,06,54,3.30
2008,02,07,06,55,4.10
2008,02,07,06,56,3.80
2008,02,07,06,57,3.00
2008,02,07,06,58,3.00
2008,02,07,06,59,3.50
2008,02,07,07,00,4.00
2008,02,07,07,01,5.30
2008,02,07,07,02,4.00
2008,02,07,07,03,3.60
2008,02,07,07,04,3.30
2008,02,07,07,05,1.70
2008,02,07,07,06,0.50
2008,02,07,07,07,2.50
2008,02,07,07,08,2.60
2008,02,07,07,09,3.10
2008,02,07,07,10,0.80
2008,02,07,07,11,1.50
2008,02,07,07,12,1.80
2008,02,07,07,13,2.00
2008,02,07,07,14,2.30
2008,02,07,07,15,0.60
2008,02,07,07,16,1.70
2008,02,07,07,17,1.00
2008,02,07,07,18,1.60
2008,02,07,07,19,2.70
2008,02,07,07,20,3.60
2008,02,07,07,21,3.80
2008,02,07,07,22,2.40
2008,02,07,07,23,1.50
2008,02,07,07,24,1.40
2008,02,07,07,25,0.10
2008,02,07,07,26,0.10
2008,02,07,07,27,0.00
2008,02,07,07,28,0.00
2008,02,07,07,29,0.00
2008,02,07,07,30,0.00
2008,02,07,07,31,0.00
2008,02,07,07,32,0.00
2008,02,07,07,33,0.20
2008,02,07,07,34,5.20
2008,02,07,07,35,6.40
2008,02,07,07,36,4.70
2008,02,07,07,37,1.60
2008,02,07,07,38,4.10
2008,02,07,07,39,3.80
2008,02,07,07,40,4.40
2008,02,07,07,41,2.80
2008,02,07,07,42,0.40
2008,02,07,07,43,2.70
2008,02,07,07,44,1.50
2008,02,07,07,45,0.40
2008,02,07,07,46,2.50
2008,02,07,07,47,0.00
2008,02,07,07,48,0.90
2008,02,07,07,49,0.80
2008,02,07,07,50,0.00
2008,02,07,07,51,0.00
2008,02,07,07,52,0.00
2008,02,07,07,53,0.40
2008,02,07,07,54,0.90
2008,02,07,07,55,0.00
2008,02,07,07,56,0.30
2008,02,07,07,57,2.90
2008,02,07,07,58,3.30
2008,02,07,07,59,1.90
2008,02,07,08,00,1.50
2008,02,07,08,01,3.50
2008,02,07,08,02,1.50
2008,02,07,08,03,1.30
2008,02,07,08,04,3.10
2008,02,07,08,05,1.30
2008,02,07,08,06,0.30
2008,02,07,08,07,0.40
2008,02,07,08,08,2.10
2008,02,07,08,09,0.00
2008,02,07,08,10,0.60
2008,02,07,08,11,0.80
2008,02,07,08,12,1.40
2008,02,07,08,13,0.00
2008,02,07,08,14,3.00
2008,02,07,08,15,3.60
2008,02,07,08,16,5.80
2008,02,07,08,17,1.50
2008,02,07,08,18,0.90
2008,02,07,08,19,1.80
2008,02,07,08,20,0.90
2008,02,07,08,21,0.00
2008,02,07,08,22,0.00
2008,02,07,08,23,0.00
2008,02,07,08,24,0.20
2008,02,07,08,25,1.00
2008,02,07,08,26,0.00
2008,02,07,08,27,0.10
2008,02,07,08,28,0.00
2008,02,07,08,29,0.00
2008,02,07,08,30,0.00
2008,02,07,08,31,0.00
2008,02,07,08,32,0.50
2008,02,07,08,33,0.00
2008,02,07,08,34,0.00
2008,02,07,08,35,0.40
2008,02,07,08,36,0.90
2008,02,07,08,37,0.60
2008,02,07,08,38,0.90
2008,02,07,08,39,0.60
2008,02,07,08,40,0.30
2008,02,07,08,41,2.10
2008,02,07,08,42,0.00
2008,02,07,08,43,0.00
2008,02,07,08,44,0.00
2008,02,07,08,45,0.00
2008,02,07,08,46,0.00
2008,02,07,08,47,2.90
2008,02,07,08,48,3.60
2008,02,07,08,49,0.10
2008,02,07,08,50,0.00
2008,02,07,08,51,0.40
2008,02,07,08,52,1.00
2008,02,07,08,53,1.90
2008,02,07,08,54,2.00
2008,02,07,08,55,0.20
2008,02,07,08,56,0.00
2008,02,07,08,57,0.00
2008,02,07,08,58,3.00
2008,02,07,08,59,2.90
2008,02,07,09,00,0.00
2008,02,07,09,01,0.00
2008,02,07,09,02,0.40
2008,02,07,09,03,1.00
2008,02,07,09,04,0.10
2008,02,07,09,05,0.00
2008,02,07,09,06,0.50
2008,02,07,09,07,3.50
2008,02,07,09,08,4.00
2008,02,07,09,09,4.70
2008,02,07,09,10,2.60
2008,02,07,09,11,0.10
2008,02,07,09,12,0.50
2008,02,07,09,13,4.40
2008,02,07,09,14,4.80
2008,02,07,09,15,3.00
2008,02,07,09,16,4.00
2008,02,07,09,17,3.30
2008,02,07,09,18,2.70
2008,02,07,09,19,1.00
2008,02,07,09,20,1.40
2008,02,07,09,21,1.20
2008,02,07,09,22,1.70
2008,02,07,09,23,1.00
2008,02,07,09,24,2.30
2008,02,07,09,25,4.90
2008,02,07,09,26,2.50
2008,02,07,09,27,3.20
2008,02,07,09,28,4.80
2008,02,07,09,29,3.40
2008,02,07,09,30,0.00
2008,02,07,09,31,0.50
2008,02,07,09,32,3.50
2008,02,07,09,33,1.30
2008,02,07,09,34,0.10
2008,02,07,09,35,1.30
2008,02,07,09,36,0.00
2008,02,07,09,37,0.00
2008,02,07,09,38,0.30
2008,02,07,09,39,1.80
2008,02,07,09,40,2.90
2008,02,07,09,41,5.10
2008,02,07,09,42,2.10
2008,02,07,09,43,0.00
2008,02,07,09,44,0.00
2008,02,07,09,45,0.00
2008,02,07,09,46,0.00
2008,02,07,09,47,0.00
2008,02,07,09,48,1.00
2008,02,07,09,49,2.90
2008,02,07,09,50,3.20
2008,02,07,09,51,2.00
2008,02,07,09,52,0.80
2008,02,07,09,53,1.90
2008,02,07,09,54,2.20
2008,02,07,09,55,1.80
2008,02,07,09,56,0.00
2008,02,07,09,57,0.40
2008,02,07,09,58,2.50
2008,02,07,09,59,4.20
2008,02,07,10,00,3.90
2008,02,07,10,01,1.20
2008,02,07,10,02,0.70
2008,02,07,10,03,1.70
2008,02,07,10,04,2.60
2008,02,07,10,05,2.60
2008,02,07,10,06,3.40
2008,02,07,10,07,3.10
2008,02,07,10,08,1.10
2008,02,07,10,09,1.90
2008,02,07,10,10,3.60
2008,02,07,10,11,2.00
2008,02,07,10,12,0.40
2008,02,07,10,13,1.40
2008,02,07,10,14,3.30
2008,02,07,10,15,3.50
2008,02,07,10,16,1.40
2008,02,07,10,17,0.00
2008,02,07,10,18,0.00
2008,02,07,10,19,0.20
2008,02,07,10,20,0.10
2008,02,07,10,21,0.20
2008,02,07,10,22,0.90
2008,02,07,10,23,0.30
2008,02,07,10,24,0.00
2008,02,07,10,25,0.00
2008,02,07,10,26,0.30
2008,02,07,10,27,0.00
2008,02,07,10,28,0.00
2008,02,07,10,29,0.30
2008,02,07,10,30,1.30
2008,02,07,10,31,0.40
2008,02,07,10,32,1.90
2008,02,07,10,33,1.90
2008,02,07,10,34,0.30
2008,02,07,10,35,0.00
2008,02,07,10,36,0.60
2008,02,07,10,37,0.20
2008,02,07,10,38,1.00
2008,02,07,10,39,2.10
2008,02,07,10,40,0.70
2008,02,07,10,41,0.00
2008,02,07,10,42,0.80
2008,02,07,10,43,2.00
2008,02,07,10,44,0.60
2008,02,07,10,45,0.00
2008,02,07,10,46,0.00
2008,02,07,10,47,0.60
2008,02,07,10,48,0.60
2008,02,07,10,49,0.20
2008,02,07,10,50,0.00
2008,02,07,10,51,0.00
2008,02,07,10,52,0.00
2008,02,07,10,53,0.00
2008,02,07,10,54,0.00
2008,02,07,10,55,0.00
2008,02,07,10,56,1.40
2008,02,07,10,57,1.90
2008,02,07,10,58,2.00
2008,02,07,10,59,1.40
2008,02,07,11,00,0.00
2008,02,07,11,01,0.40
2008,02,07,11,02,0.60
2008,02,07,11,03,2.50
2008,02,07,11,04,3.70
2008,02,07,11,05,0.60
2008,02,07,11,06,0.90
2008,02,07,11,07,1.80
2008,02,07,11,08,0.10
2008,02,07,11,09,0.00
2008,02,07,11,10,0.00
2008,02,07,11,11,0.10
2008,02,07,11,12,0.00
2008,02,07,11,13,0.00
2008,02,07,11,14,0.00
2008,02,07,11,15,0.00
2008,02,07,11,16,0.00
2008,02,07,11,17,0.20
2008,02,07,11,18,0.20
2008,02,07,11,19,0.00
2008,02,07,11,20,0.00
2008,02,07,11,21,0.30
2008,02,07,11,22,0.90
2008,02,07,11,23,1.70
2008,02,07,11,24,0.10
2008,02,07,11,25,0.10
2008,02,07,11,26,0.10
2008,02,07,11,27,0.00
2008,02,07,11,28,1.00
2008,02,07,11,29,0.40
2008,02,07,11,30,1.20
2008,02,07,11,31,3.00
2008,02,07,11,32,4.90
2008,02,07,11,33,7.10
2008,02,07,11,34,2.80
2008,02,07,11,35,0.20
2008,02,07,11,36,3.10
2008,02,07,11,37,3.80
2008,02,07,11,38,5.60
2008,02,07,11,39,5.00
2008,02,07,11,40,4.40
2008,02,07,11,41,2.60
2008,02,07,11,42,0.70
2008,02,07,11,43,0.40
2008,02,07,11,44,0.00
2008,02,07,11,45,0.00
2008,02,07,11,46,1.00
2008,02,07,11,47,0.00
2008,02,07,11,48,0.70
2008,02,07,11,49,3.50
2008,02,07,11,50,3.70
2008,02,07,11,51,0.80
2008,02,07,11,52,0.00
2008,02,07,11,53,1.80
2008,02,07,11,54,8.90
2008,02,07,11,55,3.30
2008,02,07,11,56,2.50
2008,02,07,11,57,0.20
2008,02,07,11,58,0.00
2008,02,07,11,59,1.90
2008,02,07,12,00,3.80
2008,02,07,12,01,0.00
2008,02,07,12,02,0.20
2008,02,07,12,03,0.90
2008,02,07,12,04,0.70
2008,02,07,12,05,3.50
2008,02,07,12,06,7.00
2008,02,07,12,07,5.70
2008,02,07,12,08,1.90
2008,02,07,12,09,1.80
2008,02,07,12,10,0.60
2008,02,07,12,11,0.40
2008,02,07,12,12,4.20
2008,02,07,12,13,6.40
2008,02,07,12,14,4.30
2008,02,07,12,15,4.20
2008,02,07,12,16,5.40
2008,02,07,12,17,1.10
2008,02,07,12,18,3.50
2008,02,07,12,19,6.00
2008,02,07,12,20,5.20
2008,02,07,12,21,7.40
2008,02,07,12,22,6.40
2008,02,07,12,23,9.60
2008,02,07,12,24,12.90
2008,02,07,12,25,11.30
2008,02,07,12,26,9.10
2008,02,07,12,27,12.50
2008,02,07,12,28,6.70
2008,02,07,12,29,6.90
2008,02,07,12,30,9.40
2008,02,07,12,31,18.50
2008,02,07,12,32,10.00
2008,02,07,12,33,4.50
2008,02,07,12,34,7.40
2008,02,07,12,35,6.00
2008,02,07,12,36,17.30
2008,02,07,12,37,17.40
2008,02,07,12,38,19.10
2008,02,07,12,39,14.10
2008,02,07,12,40,8.10
2008,02,07,12,41,6.60
2008,02,07,12,42,9.20
2008,02,07,12,43,7.70
2008,02,07,12,44,9.90
2008,02,07,12,45,19.70
2008,02,07,12,46,11.00
2008,02,07,12,47,14.50
2008,02,07,12,48,19.70
2008,02,07,12,49,13.00
2008,02,07,12,50,11.20
2008,02,07,12,51,10.10
2008,02,07,12,52,8.50
2008,02,07,12,53,5.40
2008,02,07,12,54,7.60
2008,02,07,12,55,6.90
2008,02,07,12,56,7.90
2008,02,07,12,57,10.70
2008,02,07,12,58,16.30
2008,02,07,12,59,24.00
2008,02,07,13,00,16.70
2008,02,07,13,01,6.90
2008,02,07,13,02,4.30
2008,02,07,13,03,7.30
2008,02,07,13,04,8.70
2008,02,07,13,05,11.60
2008,02,07,13,06,2.10
2008,02,07,13,07,10.90
2008,02,07,13,08,6.50
2008,02,07,13,09,5.10
2008,02,07,13,10,11.40
2008,02,07,13,11,13.00
2008,02,07,13,12,8.30
2008,02,07,13,13,5.20
2008,02,07,13,14,9.80
2008,02,07,13,15,13.50
2008,02,07,13,16,11.70
2008,02,07,13,17,20.30
2008,02,07,13,18,12.50
2008,02,07,13,19,10.30
2008,02,07,13,20,7.30
2008,02,07,13,21,4.80
2008,02,07,13,22,6.10
2008,02,07,13,23,7.30
2008,02,07,13,24,4.40
2008,02,07,13,25,7.80
2008,02,07,13,26,10.50
2008,02,07,13,27,2.90
2008,02,07,13,28,8.30
2008,02,07,13,29,10.30
2008,02,07,13,30,19.00
2008,02,07,13,31,10.30
2008,02,07,13,32,7.20
2008,02,07,13,33,8.50
2008,02,07,13,34,6.50
2008,02,07,13,35,2.50
2008,02,07,13,36,3.50
2008,02,07,13,37,8.40
2008,02,07,13,38,10.60
2008,02,07,13,39,6.30
2008,02,07,13,40,1.90
2008,02,07,13,41,2.80
2008,02,07,13,42,11.30
2008,02,07,13,43,17.70
2008,02,07,13,44,12.90
2008,02,07,13,45,17.30
2008,02,07,13,46,7.20
2008,02,07,13,47,10.30
2008,02,07,13,48,16.60
2008,02,07,13,49,7.50
2008,02,07,13,50,19.30
2008,02,07,13,51,17.70
2008,02,07,13,52,21.10
2008,02,07,13,53,18.00
2008,02,07,13,54,8.70
2008,02,07,13,55,16.80
2008,02,07,13,56,20.90
2008,02,07,13,57,11.40
2008,02,07,13,58,12.30
2008,02,07,13,59,18.90
2008,02,07,14,00,16.30
2008,02,07,14,01,10.70
2008,02,07,14,02,16.40
2008,02,07,14,03,6.90
2008,02,07,14,04,6.20
2008,02,07,14,05,16.90
2008,02,07,14,06,6.20
2008,02,07,14,07,12.50
2008,02,07,14,08,14.60
2008,02,07,14,09,17.40
2008,02,07,14,10,9.20
2008,02,07,14,11,15.50
2008,02,07,14,12,7.10
2008,02,07,14,13,5.90
2008,02,07,14,14,3.90
2008,02,07,14,15,4.10
2008,02,07,14,16,8.70
2008,02,07,14,17,7.80
2008,02,07,14,18,12.10
2008,02,07,14,19,17.70
2008,02,07,14,20,11.40
2008,02,07,14,21,11.40
2008,02,07,14,22,13.30
2008,02,07,14,23,7.30
2008,02,07,14,24,4.10
2008,02,07,14,25,2.40
2008,02,07,14,26,2.90
2008,02,07,14,27,2.30
2008,02,07,14,28,1.80
2008,02,07,14,29,10.00
2008,02,07,14,30,24.60
2008,02,07,14,31,19.50
2008,02,07,14,32,13.00
2008,02,07,14,33,3.20
2008,02,07,14,34,3.40
2008,02,07,14,35,8.10
2008,02,07,14,36,8.60
2008,02,07,14,37,8.30
2008,02,07,14,38,7.40
2008,02,07,14,39,2.80
2008,02,07,14,40,5.80
2008,02,07,14,41,9.10
2008,02,07,14,42,9.10
2008,02,07,14,43,5.50
2008,02,07,14,44,6.60
2008,02,07,14,45,4.00
2008,02,07,14,46,7.30
2008,02,07,14,47,11.60
2008,02,07,14,48,8.90
2008,02,07,14,49,16.60
2008,02,07,14,50,16.20
2008,02,07,14,51,10.80
2008,02,07,14,52,18.00
2008,02,07,14,53,16.60
2008,02,07,14,54,19.00
2008,02,07,14,55,13.90
2008,02,07,14,56,3.50
2008,02,07,14,57,0.40
2008,02,07,14,58,3.30
2008,02,07,14,59,6.90
2008,02,07,15,00,8.30
2008,02,07,15,01,8.20
2008,02,07,15,02,12.30
2008,02,07,15,03,6.90
2008,02,07,15,04,8.00
2008,02,07,15,05,4.80
2008,02,07,15,06,17.40
2008,02,07,15,07,14.90
2008,02,07,15,08,9.50
2008,02,07,15,09,7.30
2008,02,07,15,10,21.50
2008,02,07,15,11,8.00
2008,02,07,15,12,4.60
2008,02,07,15,13,1.90
2008,02,07,15,14,8.70
2008,02,07,15,15,18.70
2008,02,07,15,16,5.70
2008,02,07,15,17,8.20
2008,02,07,15,18,11.00
2008,02,07,15,19,7.90
2008,02,07,15,20,18.70
2008,02,07,15,21,20.20
2008,02,07,15,22,17.50
2008,02,07,15,23,13.10
2008,02,07,15,24,13.50
2008,02,07,15,25,13.50
2008,02,07,15,26,12.00
2008,02,07,15,27,14.50
2008,02,07,15,28,13.50
2008,02,07,15,29,9.20
2008,02,07,15,30,4.50
2008,02,07,15,31,1.40
2008,02,07,15,32,6.30
2008,02,07,15,33,11.80
2008,02,07,15,34,11.10
2008,02,07,15,35,6.40
2008,02,07,15,36,6.80
2008,02,07,15,37,1.00
2008,02,07,15,38,11.10
2008,02,07,15,39,10.20
2008,02,07,15,40,9.60
2008,02,07,15,41,13.80
2008,02,07,15,42,11.30
2008,02,07,15,43,9.00
2008,02,07,15,44,5.60
2008,02,07,15,45,10.30
2008,02,07,15,46,16.50
2008,02,07,15,47,13.80
2008,02,07,15,48,14.50
2008,02,07,15,49,9.60
2008,02,07,15,50,4.30
2008,02,07,15,51,9.90
2008,02,07,15,52,13.40
2008,02,07,15,53,11.60
2008,02,07,15,54,11.80
2008,02,07,15,55,12.10
2008,02,07,15,56,11.40
2008,02,07,15,57,17.40
2008,02,07,15,58,15.30
2008,02,07,15,59,17.50
2008,02,07,16,00,27.70
2008,02,07,16,01,14.90
2008,02,07,16,02,20.60
2008,02,07,16,03,19.00
2008,02,07,16,04,14.10
2008,02,07,16,05,19.10
2008,02,07,16,06,15.60
2008,02,07,16,07,14.20
2008,02,07,16,08,16.60
2008,02,07,16,09,21.20
2008,02,07,16,10,21.90
2008,02,07,16,11,17.20
2008,02,07,16,12,11.90
2008,02,07,16,13,10.00
2008,02,07,16,14,7.60
2008,02,07,16,15,12.10
2008,02,07,16,16,9.20
2008,02,07,16,17,14.40
2008,02,07,16,18,15.70
2008,02,07,16,19,8.50
2008,02,07,16,20,17.00
2008,02,07,16,21,18.30
2008,02,07,16,22,14.30
2008,02,07,16,23,12.80
2008,02,07,16,24,16.30
2008,02,07,16,25,20.80
2008,02,07,16,26,19.60
2008,02,07,16,27,17.80
2008,02,07,16,28,15.20
2008,02,07,16,29,16.90
2008,02,07,16,30,19.80
2008,02,07,16,31,17.80
2008,02,07,16,32,17.20
2008,02,07,16,33,12.80
2008,02,07,16,34,14.30
2008,02,07,16,35,16.90
2008,02,07,16,36,16.20
2008,02,07,16,37,14.70
2008,02,07,16,38,16.70
2008,02,07,16,39,16.50
2008,02,07,16,40,12.10
2008,02,07,16,41,15.80
2008,02,07,16,42,16.20
2008,02,07,16,43,8.50
2008,02,07,16,44,10.20
2008,02,07,16,45,13.90
2008,02,07,16,46,9.80
2008,02,07,16,47,14.20
2008,02,07,16,48,12.90
2008,02,07,16,49,11.70
2008,02,07,16,50,13.60
2008,02,07,16,51,10.00
2008,02,07,16,52,11.20
2008,02,07,16,53,9.60
2008,02,07,16,54,13.10
2008,02,07,16,55,6.40
2008,02,07,16,56,7.80
2008,02,07,16,57,5.80
2008,02,07,16,58,5.80
2008,02,07,16,59,8.70
2008,02,07,17,00,8.00
2008,02,07,17,01,5.60
2008,02,07,17,02,5.70
2008,02,07,17,03,7.30
2008,02,07,17,04,7.10
2008,02,07,17,05,8.60
2008,02,07,17,06,7.10
2008,02,07,17,07,8.80
2008,02,07,17,08,10.90
2008,02,07,17,09,9.60
2008,02,07,17,10,14.20
2008,02,07,17,11,9.90
2008,02,07,17,12,13.40
2008,02,07,17,13,15.80
2008,02,07,17,14,13.30
2008,02,07,17,15,13.90
2008,02,07,17,16,13.00
2008,02,07,17,17,10.10
2008,02,07,17,18,6.90
2008,02,07,17,19,13.80
2008,02,07,17,20,17.80
2008,02,07,17,21,11.10
2008,02,07,17,22,12.10
2008,02,07,17,23,9.70
2008,02,07,17,24,9.50
2008,02,07,17,25,10.40
2008,02,07,17,26,14.20
2008,02,07,17,27,8.70
2008,02,07,17,28,13.40
2008,02,07,17,29,10.10
2008,02,07,17,30,10.10
2008,02,07,17,31,10.40
2008,02,07,17,32,8.90
2008,02,07,17,33,10.60
2008,02,07,17,34,8.40
2008,02,07,17,35,6.60
2008,02,07,17,36,8.90
2008,02,07,17,37,5.90
2008,02,07,17,38,5.60
2008,02,07,17,39,4.90
2008,02,07,17,40,7.50
2008,02,07,17,41,7.70
2008,02,07,17,42,12.90
2008,02,07,17,43,10.70
2008,02,07,17,44,8.80
2008,02,07,17,45,10.90
2008,02,07,17,46,11.00
2008,02,07,17,47,7.20
2008,02,07,17,48,9.40
2008,02,07,17,49,11.90
2008,02,07,17,50,9.00
2008,02,07,17,51,11.00
2008,02,07,17,52,9.50
2008,02,07,17,53,9.20
2008,02,07,17,54,16.80
2008,02,07,17,55,17.50
2008,02,07,17,56,11.60
2008,02,07,17,57,14.80
2008,02,07,17,58,11.00